Weather History for KBWG - October, 2013

Change the Weather History Date:

Wednesday, October 9, 2013

  Actual Average Record
Temperature  
Mean Temperature 63 °F 61 °F  
Max Temperature 78 °F 74 °F 90 °F (1928)
Min Temperature 47 °F 48 °F 30 °F (2000)
Degree Days  
Heating Degree Days 2 6  
Month to date heating degree days 21 42  
Since 1 July heating degree days 33 78  
Cooling Degree Days 0 1  
Month to date cooling degree days 40 18  
Year to date cooling degree days 1492 1473  
Growing Degree Days 13 (Base 50)    
Moisture  
Dew Point 54 °F    
Average Humidity 69    
Maximum Humidity 93    
Minimum Humidity 45    
Precipitation  
Precipitation 0.00 in 0.10 in 2.23 in (1999)
Month to date precipitation 2.07 1.00  
Year to date precipitation 49.86 38.49  
Snow  
Snow 0.00 in 0.00 in 0.00 in ()
Month to date snowfall 0.0 0.0  
Since 1 July snowfall 0.0 0.0  
Since 1 September snowfall 0.0 0.0  
Snow Depth 0.00 in    
Sea Level Pressure  
Sea Level Pressure 30.15 in    
Wind  
Wind Speed 1 mph (ENE)    
Max Wind Speed 8 mph    
Max Gust Speed 14 mph    
Visibility 10 miles    
Events      
T = Trace of Precipitation, MM = Missing Value Source: NWS Daily Summary

Daily Weather History Graph

Daily Weather History Graph

Search for Another Location

Airport or City:

Trip Planner

Search our weather history database for the weather conditions in past years. The results will help you decide how hot, cold, wet, or windy it might be!

Date:

Astronomy

Oct. 09, 2013 Rise Set
Actual Time 6:48 AM CDT 6:16 PM CDT
Civil Twilight 6:22 AM CDT 6:42 PM CDT
Nautical Twilight 5:52 AM CDT 7:12 PM CDT
Astronomical Twilight 5:21 AM CDT 7:43 PM CDT
Moon 11:37 AM CDT (10/9) 9:56 PM CDT (10/9)
Length of Visible Light 12h 20m
Length of Day
11h 28m
Waxing Crescent, 25% of the Moon is Illuminated
Oct 9
Waxing Crescent
Oct 11
First Quarter
Oct 18
Full
Oct 26
Last Quarter
Nov 3
New

Hourly Weather History & Observations

Time (CDT) Temp. Dew Point Humidity Pressure Visibility Wind Dir Wind Speed Gust Speed Precip Events Conditions
12:53 AM 52.0 °F 48.0 °F 86% 30.14 in 10.0 mi Calm Calm - N/A   Clear
1:53 AM 51.1 °F 48.0 °F 89% 30.14 in 10.0 mi Calm Calm - N/A   Clear
2:53 AM 50.0 °F 46.9 °F 89% 30.13 in 10.0 mi Calm Calm - N/A   Clear
3:53 AM 48.0 °F 45.0 °F 89% 30.14 in 10.0 mi Calm Calm - N/A   Clear
4:53 AM 48.0 °F 46.0 °F 93% 30.14 in 10.0 mi Calm Calm - N/A   Clear
5:53 AM 48.0 °F 46.0 °F 93% 30.16 in 10.0 mi Calm Calm - N/A   Clear
6:53 AM 48.9 °F 46.9 °F 93% 30.17 in 10.0 mi Calm Calm - N/A   Clear
7:53 AM 52.0 °F 48.9 °F 89% 30.18 in 10.0 mi Calm Calm - N/A   Clear
8:53 AM 57.0 °F 52.0 °F 83% 30.20 in 10.0 mi Calm Calm - N/A   Partly Cloudy
9:53 AM 61.0 °F 54.0 °F 78% 30.21 in 10.0 mi Calm Calm - N/A   Clear
10:53 AM 66.0 °F 55.0 °F 68% 30.20 in 10.0 mi Calm Calm - N/A   Partly Cloudy
11:53 AM 72.0 °F 57.0 °F 59% 30.19 in 10.0 mi Calm Calm - N/A   Clear
12:53 PM 75.0 °F 57.9 °F 55% 30.17 in 10.0 mi Calm Calm - N/A   Partly Cloudy
1:53 PM 75.9 °F 60.1 °F 58% 30.15 in 10.0 mi ESE 4.6 mph - N/A   Partly Cloudy
2:53 PM 78.1 °F 55.0 °F 45% 30.14 in 10.0 mi Calm Calm - N/A   Clear
3:53 PM 77.0 °F 57.0 °F 50% 30.12 in 10.0 mi NE 4.6 mph - N/A   Clear
4:53 PM 73.0 °F 59.0 °F 61% 30.12 in 10.0 mi NE 4.6 mph - N/A   Clear
5:53 PM 72.0 °F 60.1 °F 66% 30.12 in 10.0 mi ENE 3.5 mph - N/A   Mostly Cloudy
6:53 PM 68.0 °F 57.9 °F 70% 30.13 in 10.0 mi NNE 3.5 mph - N/A   Clear
7:53 PM 66.9 °F 57.9 °F 73% 30.13 in 10.0 mi Calm Calm - N/A   Mostly Cloudy
8:53 PM 64.0 °F 57.9 °F 80% 30.14 in 10.0 mi Calm Calm - N/A   Overcast
9:53 PM 64.0 °F 59.0 °F 84% 30.15 in 10.0 mi Calm Calm - N/A   Overcast
10:53 PM 60.1 °F 57.0 °F 90% 30.14 in 10.0 mi Calm Calm - N/A   Clear
11:53 PM 57.9 °F 55.9 °F 93% 30.14 in 10.0 mi Calm Calm - N/A   Clear